User: anonymous   Login
Location: Ostrava
(49.8330°N, 18.2830°E)
Time: 07:45:35
(UTC+01:00)
Language:

Cosmos 1263 Rocket - Orbit

View from above orbital plane
View from above orbital plane
View from above satellite
View from above satellite

Ground track
Ground track

The orbit data is extracted from the following two-line orbital elements,

1 12389U 81033B   14327.10191338  .00060874  00000-0  69767-3 0  1569
2 12389 082.8679 313.1006 0164406 258.0256 144.4542 15.47061548734153
Epoch (UTC): 23 November 2014 02:26:45
Eccentricity: 0.0164406
inclination: 82.8679°
perigee height: 313 km
apogee height: 537 km
right ascension of ascending node: 313.1006°
argument of perigee: 258.0256°
revolutions per day: 15.47061548
mean anomaly at epoch: 144.4542°
orbit number at epoch: 73415

The dashed part of the orbit path shows where the satellite is in the earth's shadow,  

DLR